| time (UTC) | temp C | wind direction | speed KPH | gust KPH | rain 1hr cm | rain 24hr cm | rain mn cm | humidity % | barometer mb |
| 20260504045022 | 16 | 297 | 3.2 | 6.4 | 0.00 | 0.03 | 0.03 | 73 | 1019.3 |
| 20260504044025 | 16 | 314 | 4.8 | 8.0 | 0.00 | 0.03 | 0.03 | 73 | 1019.2 |
| 20260504043051 | 16 | 340 | 3.2 | 6.4 | 0.00 | 0.03 | 0.03 | 72 | 1019.3 |
| 20260504042023 | 16 | 322 | 4.8 | 8.0 | 0.00 | 0.03 | 0.03 | 71 | 1019.3 |
| 20260504041023 | 16 | 325 | 4.8 | 8.0 | 0.00 | 0.03 | 0.03 | 71 | 1019.2 |
| 20260504040048 | 17 | 328 | 3.2 | 6.4 | 0.00 | 0.03 | 0.03 | 71 | 1019.1 |
| 20260504035051 | 17 | 327 | 4.8 | 6.4 | 0.00 | 0.03 | 0.03 | 71 | 1019.1 |
| 20260504034023 | 17 | 333 | 4.8 | 6.4 | 0.00 | 0.03 | 0.03 | 71 | 1019.1 |
| 20260504033023 | 17 | 323 | 4.8 | 8.0 | 0.00 | 0.03 | 0.03 | 72 | 1019.1 |
| 20260504032023 | 17 | 321 | 3.2 | 8.0 | 0.00 | 0.03 | 0.03 | 72 | 1019.1 |
| 20260504031023 | 17 | 325 | 3.2 | 6.4 | 0.00 | 0.03 | 0.03 | 71 | 1019.2 |
| 20260504030024 | 17 | 333 | 4.8 | 6.4 | 0.00 | 0.03 | 0.03 | 71 | 1019.2 |
| 20260504025024 | 17 | 331 | 3.2 | 6.4 | 0.00 | 0.03 | 0.03 | 71 | 1019.2 |
| 20260504024024 | 18 | 331 | 3.2 | 4.8 | 0.00 | 0.03 | 0.03 | 69 | 1019.2 |
| 20260504023024 | 18 | 317 | 4.8 | 8.0 | 0.00 | 0.03 | 0.03 | 68 | 1019.1 |
| 20260504022049 | 18 | 323 | 4.8 | 8.0 | 0.00 | 0.03 | 0.03 | 67 | 1019.0 |
| 20260504021022 | 17 | 298 | 8.0 | 12.9 | 0.00 | 0.03 | 0.03 | 71 | 1018.8 |
| 20260504020025 | 18 | 341 | 3.2 | 4.8 | 0.00 | 0.03 | 0.03 | 70 | 1018.8 |
| 20260504015024 | 19 | 348 | 3.2 | 4.8 | 0.00 | 0.03 | 0.03 | 67 | 1018.5 |
| 20260504014115 | 20 | 341 | 3.2 | 4.8 | 0.00 | 0.03 | 0.03 | 64 | 1018.4 |
| 20260504013022 | 21 | 331 | 3.2 | 6.4 | 0.00 | 0.03 | 0.03 | 59 | 1018.3 |
| 20260504012022 | 21 | 278 | 3.2 | 6.4 | 0.00 | 0.03 | 0.03 | 54 | 1018.2 |
| 20260504011051 | 21 | 248 | 6.4 | 11.3 | 0.00 | 0.03 | 0.03 | 61 | 1018.1 |
| 20260504010133 | 21 | 236 | 9.7 | 14.5 | 0.00 | 0.03 | 0.03 | 63 | 1018.1 |
| 20260504005023 | 21 | 232 | 11.3 | 16.1 | 0.00 | 0.03 | 0.03 | 66 | 1018.0 |
| 20260504004023 | 21 | 233 | 11.3 | 17.7 | 0.00 | 0.03 | 0.03 | 66 | 1018.0 |
| 20260504003023 | 21 | 237 | 11.3 | 16.1 | 0.00 | 0.03 | 0.03 | 65 | 1017.9 |
| 20260504002023 | 21 | 237 | 11.3 | 16.1 | 0.00 | 0.03 | 0.03 | 64 | 1017.9 |
| 20260504001023 | 21 | 237 | 11.3 | 16.1 | 0.00 | 0.03 | 0.03 | 64 | 1017.8 |
| 20260504000024 | 21 | 232 | 11.3 | 16.1 | 0.00 | 0.03 | 0.03 | 63 | 1017.8 |
| 20260503235023 | 21 | 235 | 9.7 | 14.5 | 0.00 | 0.03 | 0.03 | 61 | 1017.8 |
| 20260503234025 | 21 | 232 | 11.3 | 19.3 | 0.00 | 0.03 | 0.03 | 61 | 1017.9 |
| 20260503233023 | 21 | 227 | 11.3 | 16.1 | 0.00 | 0.03 | 0.03 | 61 | 1017.9 |
| 20260503232024 | 21 | 223 | 11.3 | 17.7 | 0.00 | 0.03 | 0.03 | 61 | 1017.9 |
| 20260503231024 | 21 | 220 | 11.3 | 17.7 | 0.00 | 0.03 | 0.03 | 60 | 1017.9 |
| 20260503230024 | 21 | 219 | 12.9 | 17.7 | 0.00 | 0.03 | 0.03 | 58 | 1017.9 |
| 20260503225046 | 21 | 209 | 16.1 | 19.3 | 0.00 | 0.03 | 0.03 | 59 | 1018.0 |
| 20260503224024 | 21 | 218 | 12.9 | 17.7 | 0.00 | 0.03 | 0.03 | 57 | 1017.9 |
| 20260503223024 | 21 | 221 | 12.9 | 19.3 | 0.00 | 0.03 | 0.03 | 55 | 1017.8 |
| 20260503222024 | 21 | 222 | 11.3 | 17.7 | 0.00 | 0.03 | 0.03 | 52 | 1017.8 |
| 20260503221022 | 21 | 218 | 12.9 | 16.1 | 0.00 | 0.03 | 0.03 | 51 | 1017.9 |
| 20260503220022 | 21 | 212 | 12.9 | 17.7 | 0.00 | 0.03 | 0.03 | 51 | 1018.0 |
| 20260503215050 | 21 | 215 | 14.5 | 19.3 | 0.00 | 0.03 | 0.03 | 53 | 1018.0 |
| 20260503214025 | 21 | 222 | 12.9 | 19.3 | 0.00 | 0.03 | 0.03 | 52 | 1018.1 |
| 20260503213022 | 21 | 225 | 14.5 | 20.9 | 0.00 | 0.03 | 0.03 | 52 | 1018.2 |
| 20260503212022 | 21 | 218 | 16.1 | 20.9 | 0.00 | 0.03 | 0.03 | 52 | 1018.3 |
| 20260503211022 | 21 | 229 | 11.3 | 19.3 | 0.00 | 0.03 | 0.03 | 52 | 1018.5 |
| 20260503210051 | 21 | 227 | 11.3 | 19.3 | 0.00 | 0.03 | 0.03 | 51 | 1018.5 |
| 20260503205023 | 21 | 231 | 11.3 | 19.3 | 0.00 | 0.03 | 0.03 | 53 | 1018.7 |
| 20260503204023 | 21 | 215 | 14.5 | 17.7 | 0.00 | 0.03 | 0.03 | 47 | 1018.7 |
| 20260503203023 | 21 | 203 | 12.9 | 16.1 | 0.00 | 0.03 | 0.03 | 48 | 1018.8 |
| 20260503202023 | 21 | 201 | 14.5 | 20.9 | 0.00 | 0.03 | 0.03 | 48 | 1018.9 |
| 20260503201024 | 21 | 199 | 16.1 | 20.9 | 0.00 | 0.03 | 0.03 | 47 | 1018.9 |
| 20260503200024 | 21 | 168 | 12.9 | 16.1 | 0.00 | 0.03 | 0.03 | 46 | 1019.2 |
| 20260503195023 | 22 | 221 | 6.4 | 12.9 | 0.00 | 0.03 | 0.03 | 44 | 1019.4 |
| 20260503194034 | 23 | 302 | 3.2 | 8.0 | 0.00 | 0.03 | 0.03 | 33 | 1019.5 |
| 20260503193024 | 23 | 150 | 3.2 | 8.0 | 0.00 | 0.03 | 0.03 | 35 | 1019.7 |
| 20260503192024 | 23 | 53 | 4.8 | 12.9 | 0.00 | 0.03 | 0.03 | 33 | 1019.8 |
| 20260503191024 | 23 | 242 | 3.2 | 6.4 | 0.00 | 0.03 | 0.03 | 33 | 1019.9 |
| 20260503190049 | 22 | 9 | 8.0 | 17.7 | 0.00 | 0.03 | 0.03 | 34 | 1020.2 |
| 20260503185021 | 22 | 77 | 11.3 | 17.7 | 0.00 | 0.03 | 0.03 | 34 | 1020.2 |
| 20260503184049 | 22 | 25 | 4.8 | 8.0 | 0.00 | 0.03 | 0.03 | 33 | 1020.4 |
| 20260503183050 | 22 | 356 | 8.0 | 20.9 | 0.00 | 0.03 | 0.03 | 33 | 1020.5 |
| 20260503182025 | 22 | 315 | 8.0 | 16.1 | 0.00 | 0.03 | 0.03 | 33 | 1020.6 |
| 20260503181022 | 22 | 324 | 8.0 | 16.1 | 0.00 | 0.03 | 0.03 | 33 | 1020.7 |
| 20260503180022 | 22 | 346 | 11.3 | 20.9 | 0.00 | 0.03 | 0.03 | 32 | 1020.7 |
| 20260503175025 | 22 | 3 | 6.4 | 19.3 | 0.00 | 0.03 | 0.03 | 34 | 1020.8 |
| 20260503174050 | 22 | 348 | 9.7 | 20.9 | 0.00 | 0.03 | 0.03 | 34 | 1020.8 |
| 20260503173022 | 22 | 45 | 6.4 | 14.5 | 0.00 | 0.03 | 0.03 | 35 | 1020.9 |
| 20260503172048 | 22 | 358 | 11.3 | 25.7 | 0.03 | 0.03 | 0.03 | 33 | 1021.0 |
| 20260503171048 | 22 | 342 | 9.7 | 19.3 | 0.03 | 0.03 | 0.03 | 34 | 1021.2 |
| 20260503150114 | 20 | 21 | 6.4 | 12.9 | 0.00 | 0.00 | 0.00 | 44 | 1022.0 |
| 20260503131023 | 15 | 358 | 6.4 | 11.3 | 0.00 | 0.00 | 0.00 | 65 | 1021.4 |
| 20260503081025 | 11 | 348 | 3.2 | 4.8 | 0.00 | 1.75 | 0.00 | 83 | 1019.4 |
| 20260503072025 | 11 | 3 | 3.2 | 4.8 | 0.00 | 2.79 | 0.00 | 80 | 1019.1 |
| 20260503071022 | 11 | 357 | 3.2 | 6.4 | 0.00 | 2.82 | 0.00 | 79 | 1019.1 |